Location: Ballard
(38.3614°N, 94.1431°W)
Time: 07:39:47
(UTC-05:00)

Hubble Space Telescope - Pass Details

Date: 26 March 2019
Orbit: 536 x 540 km, 28.5° (Epoch: 22 October)

Event Time Altitude Azimuth Distance (km) Brightness Sun altitude
Rises 21:13:13 0° 240° (WSW) 2,673 4.9 -19.8°
Reaches altitude 10° 21:15:56 10° 223° (SW) 1,784 3.7 -20.3°
Enters shadow 21:18:18 19° 188° (S) 1,307 2.6 -20.7°
